SSEC Globe Logo

Space Science and Engineering Center

Wisconsin State Observations

ASUS43 KMKX 181500                                              2018169 1500
RWRWI
WISCONSIN REGIONAL WEATHER ROUNDUP
NATIONAL WEATHER SERVICE MILWAUKEE/SULLIVAN WI
NOTE: "FAIR" INDICATES FEW OR NO CLOUDS BELOW 12,000 FEET WITH NO
SIGNIFICANT WEATHER AND/OR OBSTRUCTIONS TO VISIBILITY.

CITY           SKY/WX    TMP DP  RH WIND       PRES   REMARKS
SUPERIOR ARPT  FAIR      72  60  64 CALM      30.01R
ASHLAND        FAIR      70  61  73 N9        30.02R
HAYWARD        FAIR      70  62  76 N10       30.01R
SIREN          FAIR      69  62  77 E8        30.00R
CUMBERLAND     CLOUDY    64  61  88 NE7       30.00R
RICE LAKE      CLOUDY    67  64  89 NE10      30.00R
CHETEK         CLOUDY    67  65  95 N7        29.99R
LADYSMITH      CLOUDY    68  64  86 NE13      30.00R
EAU CLAIRE     NOT AVBL
MENOMONIE      CLOUDY    69  69  99 N10       29.97R
NEW RICHMOND   RAIN      67  66  96 NE7       29.99R
OSCEOLA        LGT RAIN  68  64  88 N9        30.01S


CITY           SKY/WX    TMP DP  RH WIND       PRES   REMARKS
MANITOWISH WTR CLOUDY    64  64 100 N9        29.99R
ARBOR VITAE    PTSUNNY   67  63  86 NE9       29.98S
WOODRUFF       PTSUNNY   67  63  86 NE9       29.98S
RHINELANDER    CLOUDY    68  64  87 N8        29.98R
EAGLE RIVER    CLOUDY    66  62  87 N9        29.98R
LAND O LAKES   CLOUDY    65  61  88 N8        30.00S
PHILLIPS       CLOUDY    65  65  99 N8        29.99R
TOMAHAWK       CLOUDY    65  62  90 N6        29.97R
MEDFORD        CLOUDY    69  66  93 NE5       29.96R
MERRILL        CLOUDY    70  69  97 N6        29.96R


CITY           SKY/WX    TMP DP  RH WIND       PRES   REMARKS
WAUSAU         CLOUDY    71  69  93 N3        29.93R
MOSINEE        CLOUDY    70  70 100 N6        29.96R
MARSHFIELD     CLOUDY    74  70  87 NE8       29.94R
STEVENS POINT  LGT RAIN  71  71 100 NW3       29.95R
WAUPACA        CLOUDY    77  76  96 CALM      29.93S
WAUTOMA        CLOUDY    76  73  91 NW3       29.93S
WISC RAPIDS    CLOUDY    75  71  87 NW6       29.94R
CAMP DOUGLAS   NOT AVBL


CITY           SKY/WX    TMP DP  RH WIND       PRES   REMARKS
ANTIGO         DRIZZLE   69  69  99 N5        29.96S
SHAWANO        RAIN      74  72  93 CALM      29.92S
OCONTO         CLOUDY    73  71  95 CALM      29.90R
STURGEON BAY   LGT RAIN  72  71  97 NW6       29.92R
GREEN BAY      LGT RAIN  74  72  93 W6        29.92R
MANITOWOC      LGT RAIN  71  70  96 SE6       29.93R FOG
APPLETON       CLOUDY    73  73 100 W5        29.92R
CLINTONVILLE   NOT AVBL
OSHKOSH        LGT RAIN  76  74  93 W3        29.91F FOG


CITY           SKY/WX    TMP DP  RH WIND       PRES   REMARKS
LA CROSSE      PTSUNNY   80  75  84 SW3       29.92R HX  85
SPARTA         CLOUDY    72  71  95 W3        29.93R
VIROQUA        PTSUNNY   77  75  92 W7        29.95R
BOSCOBEL       FAIR      86  74  67 SW6       29.91F HX  94
PRAIRIE DU CHI FAIR      84  71  65 S6        29.91F HX  88
PLATTEVILLE    FAIR      83  75  78 SW13      29.96F HX  90

CITY           SKY/WX    TMP DP  RH WIND       PRES   REMARKS
REEDSBURG      FAIR      80  75  86 SW7       29.92F HX  84
BARABOO/DELLS  FAIR      79  74  85 SW8       29.93F HX  82
LONE ROCK      NOT AVBL
MINERAL POINT  FAIR      84  73  70 W8        29.96F HX  91
MADISON        PTSUNNY   84  72  67 VRB7      29.92F HX  89
MIDDLETON      PTSUNNY   85  71  63 W10       29.94F HX  90
WATERTOWN      FAIR      78  73  85 S3        29.94F HX  81
MONROE         FAIR      82  70  65 W14       29.96F HX  86
JANESVILLE     NOT AVBL


CITY           SKY/WX    TMP DP  RH WIND       PRES   REMARKS
MILWAUKEE      PTSUNNY   87  69  54 W8        29.93F HX  91
WAUKESHA       SUNNY     81  68  65 W5        29.96F HX  83
MILWAUKEE/TIMM MOSUNNY   82  66  57 W10       29.94F HX  85
RACINE         FAIR      86  74  67 W12       29.96S HX  94
BURLINGTON     FAIR      74  61  61 W8        29.96S
KENOSHA        FAIR      86  74  67 W10G18    29.95F HX  94
FOND DU LAC    FAIR      77  72  84 W6        29.93S
SHEBOYGAN      CLOUDY    72  70  93 S5        29.92F
WEST BEND      PTSUNNY   72  72 100 W5        29.93F
JUNEAU         FAIR      76  72  88 SW6       29.95S
LSZ147-162-181600-
LAKE SUPERIOR

STATION/POSITION TIME  TEMP    WIND        PRES    WAVE
                       AIR SEA DIR/SP/G            HT/PER
                 (UTC) (F)     (DEG/KT/KT) (MB)    (FT/S)
W MID LAKE BUOY  1350   42 38  250/  6/  6 1015.1R   0
DEVILS ISLAND    1400   59     250/  4/  5 1015.6R
SAXON HARBOR     1440   60      30/  3/  3 1015.6R

LMZ867-665-643>646-181600-
LAKE MICHIGAN

STATION/POSITION TIME  TEMP    WIND        PRES    WAVE
                       AIR SEA DIR/SP/G            HT/PER
                 (UTC) (F)     (DEG/KT/KT) (MB)    (FT/S)
S GREEN BAY BUOY 1430   69 67  300/  2/  2 1012.7R
N MID LAKE BUOY  1440   54     280/  6/  6 1015.0R
NORTHPORT PIER   1440   71     280/  3/  5 1012.5R
KEWAUNEE LAKESHO 1424   73     240/  5/  8 1012.4
SHEBOYGAN LAKESH 1400   64     180/ 10/ 11 1013.1S
PORT WASHINGTON  1430   76     320/  3/  9 1014.2F
ATWATER BUOY     1407   73 54  280/ 12/ 16 1013.6    1
MILWAUKEE LAKESH 1430   82     300/  7/ 10   N/A
S MID LAKE BUOY  1350   64 59  210/ 12/ 12 1014.0R   1/ 3
KENOSHA   LAKESH 1400   83     260/ 16/ 21 1013.9
TC  - TEMPERATURE IN CELSIUS
VSB - VISIBILITY IN STATUTE MILES
WCI - WIND CHILL INDEX
HX  - HEAT INDEX